[[{"header":{"parameterUnit":"m.s-1","parameterCategory":1,"la1":30.2991,"la2":30.254,"lo1":-89.0895,"lo2":-89.0444,"dy":0.0017,"dx":0.0017,"nx":28,"ny":28,"refTime":"2024-07-03T03:00:00:Z","depth":0,"parameterNumber":2,"parameterNumberName":"U-component_of_WINDS"},"data":[0,0,0,0,0,0,0,0,0,0,0,0,0,0,0,0,0,0,0,0,0,0,0,0,0,0,0,0,0,0,0,0,0,0,0,0,0,0,0,0,0,0,0,0,0,0,0,0,0,0,0,0,0,0,0,0,0,0,2.3637,2.3636,0,2.3586,2.3585,2.3585,2.3507,2.3505,2.3504,2.3502,2.3452,2.3452,2.3452,0,0,0,0,0,0,0,0,0,0,0,0,0,2.3668,2.3668,2.3637,2.3636,2.3636,2.3586,2.3585,2.3584,2.3507,2.3505,2.3503,2.3502,2.3452,2.3452,2.3452,0,0,0,0,0,0,0,0,0,0,0,0,0,2.364,2.3668,2.3637,2.3591,2.3586,2.3586,2.3585,2.3584,2.3507,2.3505,2.3503,2.3501,2.3452,2.3452,2.3452,2.3493,0,0,2.3452,2.3452,0,0,0,0,0,0,0,0,2.3641,2.3639,2.3598,2.3594,2.3589,2.355,2.3577,2.3554,2.3508,2.3537,2.3502,2.35,2.3487,2.3483,2.3479,2.3491,2.3489,2.3452,2.3452,2.3452,2.3452,0,0,0,0,0,0,0,2.3643,2.364,2.3617,2.3598,2.3592,2.3573,2.3567,2.3573,2.3524,2.3535,2.3529,2.3524,2.3484,2.3479,2.3477,2.3488,2.3452,2.3452,2.3452,2.3452,2.353,2.3532,0,0,0,0,0,0,2.3652,2.3643,2.3618,2.3615,2.361,2.3574,2.3567,2.3565,2.3524,2.3516,2.3525,2.352,2.348,2.3477,2.3475,2.3519,2.3452,2.3452,2.3451,2.3528,2.353,2.3532,0,0,0,0,0,0,2.3653,2.3651,2.362,2.3627,2.3622,2.3576,2.3574,2.3565,2.356,2.3517,2.3508,2.3529,2.3478,2.3475,2.3489,2.3516,2.3451,2.3451,2.3525,2.3528,2.3531,2.361,0,0,0,0,0,0,2.3654,2.3651,2.3667,2.3628,2.3622,2.3635,2.3576,2.3565,2.356,2.3553,2.3518,2.3511,2.3476,2.3489,2.3489,2.3515,2.3451,2.3522,2.3527,2.353,2.3605,2.3615,2.3624,0,0,0,0,0,2.3656,2.3692,2.3668,2.3665,2.364,2.3637,2.3634,2.3592,2.3563,2.3577,2.3549,2.3512,2.3513,2.3491,2.349,2.3517,2.352,2.3525,2.353,2.36,2.3613,2.3624,0,0,0,0,0,0,2.3736,2.3686,2.3659,2.3684,2.3665,2.3624,2.3642,2.3608,2.3598,2.3592,2.3542,2.3535,2.3555,2.3537,2.3513,2.3554,2.3511,2.3516,2.3565,2.3577,2.3587,2.3591,2.3451,0,0,0,0,0,2.3756,2.3758,2.3714,2.374,2.3732,2.3689,2.3686,2.3656,2.3635,2.3627,2.36,2.3582,2.3577,2.3576,2.357,2.3601,2.3592,2.3619,2.3629,2.3637,2.3642,2.3656,2.3667,2.3548,2.3548,2.3548,0,0,2.3799,2.3772,2.3776,2.3755,2.3738,2.374,2.3683,2.3688,2.369,2.3628,2.3639,2.3619,2.3594,2.3617,2.3625,2.3603,2.3673,2.3644,2.3651,2.3651,2.3662,2.3673,2.3684,2.3551,2.3551,2.355,0,0,2.3878,2.3857,2.3876,2.3859,2.3832,2.3803,2.3807,2.3771,2.3754,2.3764,2.3717,2.3719,2.3713,2.3698,2.3689,2.376,2.3725,2.3759,2.3812,2.3826,2.3835,2.3843,2.3868,2.3877,2.3764,2.3764,2.3765,0,2.3934,2.3936,2.389,2.3898,2.389,2.3833,2.3851,2.3837,2.381,2.3806,2.3781,2.3772,2.3752,2.3769,2.3786,2.3781,2.3784,2.3763,2.3837,2.3845,2.3852,2.3875,2.3884,2.3769,2.3768,2.3768,2.3767,0,2.4006,2.4008,2.4027,2.4001,2.3995,2.4008,2.3964,2.3964,2.3933,2.3907,2.3917,2.3891,2.3878,2.3879,2.3851,2.3892,2.3879,2.3846,2.3802,2.3868,2.3889,2.3897,2.3775,2.3773,2.3772,2.3771,0,0,2.4135,2.4083,2.409,2.4077,2.4042,2.4043,2.4053,2.404,2.404,2.4023,2.403,2.4026,2.3995,2.3985,2.3954,2.3966,2.4023,2.3932,2.393,2.3949,2.4066,2.4091,2.4102,2.3999,2.4001,2.4002,2.4068,0,2.4207,2.4221,2.4179,2.4204,2.4205,2.415,2.4158,2.4138,2.4113,2.411,2.4082,2.408,2.404,2.4033,2.4043,2.4014,2.4046,2.4009,2.4005,2.4006,2.4013,2.4113,2.4139,2.4203,2.4076,2.4077,2.4078,0,2.4293,2.4279,2.4304,2.4266,2.4265,2.4273,2.4257,2.4255,2.423,2.4211,2.4199,2.4162,2.4169,2.4127,2.4136,2.4111,2.4107,2.4093,2.4094,2.4092,2.4046,2.4113,2.4222,2.4232,2.409,2.4089,2.4089,0,2.4384,2.4371,2.4384,2.4374,2.4331,2.4338,2.4321,2.4294,2.4288,2.4274,2.4269,2.4256,2.4249,2.424,2.42,2.4173,2.4213,2.4168,2.4197,2.4198,2.4209,2.4209,2.4318,2.4207,2.4206,2.4206,2.4206,0,2.4468,2.4485,2.4424,2.4432,2.4449,2.4401,2.4419,2.4396,2.4372,2.4375,2.4326,2.4329,2.4277,2.4274,2.4243,2.4254,2.4252,2.4236,2.4228,2.424,2.4242,2.4237,2.4232,2.4209,2.4208,2.4208,2.4207,0,2.4573,2.4533,2.4543,2.45,2.449,2.4504,2.4468,2.4473,2.4444,2.4448,2.4446,2.4401,2.4395,2.4354,2.4339,2.4318,2.4341,2.4324,2.4349,2.4344,2.4375,2.4373,2.4485,2.4497,2.4379,2.438,2.4381,0,2.4629,2.4641,2.4599,2.4597,2.4581,2.4578,2.4571,2.4524,2.4519,2.449,2.4499,2.4489,2.4478,2.4471,2.4438,2.4426,2.4408,2.4448,2.4406,2.4418,2.4408,2.4407,2.4408,2.4457,2.4459,2.446,2.4461,0,2.4733,2.4712,2.4704,2.4689,2.4682,2.4667,2.465,2.4651,2.4598,2.4595,2.4588,2.4579,2.4563,2.4554,2.4535,2.4517,2.448,2.4474,2.448,2.4494,2.4507,2.45,2.4374,2.4472,2.4471,2.447,2.447,2.4469,2.4815,2.4822,2.4794,2.4786,2.4767,2.4752,2.4755,2.4725,2.4718,2.4701,2.4673,2.467,2.4644,2.4615,2.46,2.4596,2.4575,2.4584,2.4586,2.4589,2.4595,2.4508,2.4593,2.4592,2.4592,2.4592,2.4591,0,2.4916,2.4895,2.4888,2.4864,2.4858,2.4823,2.4801,2.4799,2.4796,2.4774,2.4764,2.4755,2.4745,2.471,2.4696,2.47,2.4683,2.4698,2.4697,2.4693,2.4616,2.4611,2.4712,2.4712,2.4712,2.4712,2.4712,2.4712,2.4968,2.4978,2.4954,2.4954,2.4932,2.4927,2.4918,2.4903,2.4886,2.4878,2.4869,2.4845,2.4818,2.4801,2.479,2.478,2.4777,2.4798,2.4782,2.4711,2.4699,2.4688,2.4684,2.4798,2.4798,2.486,2.4861,2.4861]},{"header":{"parameterUnit":"m.s-1","parameterCategory":1,"la1":30.2991,"la2":30.254,"lo1":-89.0895,"lo2":-89.0444,"dy":0.0017,"dx":0.0017,"nx":28,"ny":28,"refTime":"2024-07-03T03:00:00:Z","depth":0,"parameterNumber":3,"parameterNumberName":"V-component_of_WINDS"},"data":[0,0,0,0,0,0,0,0,0,0,0,0,0,0,0,0,0,0,0,0,0,0,0,0,0,0,0,0,0,0,0,0,0,0,0,0,0,0,0,0,0,0,0,0,0,0,0,0,0,0,0,0,0,0,0,0,0,0,1.3078,1.3078,0,1.3079,1.3079,1.3079,1.3091,1.3091,1.3091,1.3092,1.3092,1.3092,1.3092,0,0,0,0,0,0,0,0,0,0,0,0,0,1.3084,1.3084,1.3078,1.3078,1.3078,1.3079,1.3079,1.3079,1.3091,1.3091,1.3091,1.3092,1.3092,1.3092,1.3092,0,0,0,0,0,0,0,0,0,0,0,0,0,1.3083,1.3084,1.3078,1.3084,1.3084,1.3079,1.3079,1.3079,1.3091,1.3091,1.3091,1.3092,1.3092,1.3092,1.3092,1.3081,0,0,1.3091,1.309,0,0,0,0,0,0,0,0,1.3083,1.3083,1.3083,1.3083,1.3084,1.3085,1.3082,1.308,1.309,1.3088,1.3092,1.3092,1.309,1.3089,1.3089,1.3081,1.3081,1.3091,1.309,1.309,1.309,0,0,0,0,0,0,0,1.3083,1.3083,1.3078,1.3083,1.3084,1.3086,1.3086,1.3081,1.3086,1.3088,1.3089,1.3089,1.309,1.3089,1.3089,1.3081,1.3091,1.309,1.309,1.309,1.3063,1.3062,0,0,0,0,0,0,1.3082,1.3083,1.3078,1.3078,1.3085,1.3085,1.3086,1.3084,1.3086,1.3087,1.3089,1.309,1.3089,1.3089,1.3089,1.3075,1.309,1.309,1.309,1.3063,1.3062,1.3062,0,0,0,0,0,0,1.3083,1.3082,1.3078,1.3081,1.308,1.3085,1.3083,1.3084,1.3083,1.3087,1.3088,1.3087,1.309,1.3089,1.3082,1.3076,1.309,1.3089,1.3064,1.3063,1.3062,1.3049,0,0,0,0,0,0,1.3083,1.3082,1.3078,1.3081,1.308,1.3072,1.3083,1.3084,1.3083,1.3084,1.3085,1.3086,1.309,1.3083,1.3082,1.3075,1.3089,1.3064,1.3063,1.3062,1.305,1.3047,1.3046,0,0,0,0,0,1.3083,1.3074,1.3078,1.3077,1.3076,1.3072,1.3072,1.3076,1.3082,1.3078,1.308,1.3086,1.3076,1.3082,1.3081,1.3074,1.3065,1.3064,1.3063,1.3051,1.3048,1.3046,0,0,0,0,0,0,1.3071,1.3075,1.3079,1.3071,1.3071,1.3074,1.3069,1.3074,1.3072,1.3073,1.3079,1.3079,1.3071,1.3072,1.3078,1.3063,1.3072,1.307,1.3063,1.306,1.3058,1.3058,1.3089,0,0,0,0,0,1.3068,1.3065,1.3068,1.3061,1.306,1.3064,1.3063,1.3067,1.3067,1.3067,1.3068,1.3068,1.3065,1.3063,1.306,1.305,1.305,1.3044,1.3042,1.3041,1.3039,1.3033,1.303,1.3058,1.3058,1.3058,0,0,1.3061,1.3062,1.306,1.3058,1.3059,1.3054,1.3064,1.306,1.3057,1.3066,1.3059,1.306,1.306,1.3051,1.3048,1.3052,1.3032,1.3039,1.3038,1.3037,1.3032,1.3029,1.3027,1.3057,1.3058,1.3058,0,0,1.3045,1.3047,1.304,1.304,1.304,1.3043,1.3041,1.3043,1.3044,1.3038,1.3044,1.304,1.3035,1.3034,1.3033,1.3016,1.3021,1.3015,1.3004,1.2998,1.2996,1.2994,1.2987,1.2985,1.3014,1.3014,1.3014,0,1.3036,1.3031,1.3036,1.3031,1.303,1.3038,1.3031,1.303,1.303,1.3028,1.3033,1.3026,1.3027,1.3017,1.3013,1.3012,1.301,1.3015,1.2996,1.2994,1.2992,1.2986,1.2983,1.3013,1.3013,1.3013,1.3013,0,1.3019,1.3015,1.301,1.3009,1.3007,1.3001,1.3005,1.3002,1.3006,1.3007,1.3,1.3001,1.2998,1.2996,1.3,1.2987,1.2989,1.2995,1.3004,1.2989,1.2983,1.298,1.3012,1.3012,1.3013,1.3013,0,0,1.2997,1.2998,1.2996,1.2995,1.2996,1.2993,1.2986,1.2984,1.2981,1.298,1.2974,1.2969,1.2974,1.2973,1.2976,1.2971,1.2956,1.2977,1.2977,1.2972,1.2941,1.2936,1.2933,1.2959,1.2959,1.2959,1.294,0,1.2982,1.2972,1.2976,1.2965,1.2961,1.2968,1.2962,1.2962,1.2963,1.2959,1.2961,1.2956,1.2964,1.2963,1.2958,1.2959,1.295,1.296,1.2954,1.2953,1.2953,1.293,1.2926,1.2908,1.2938,1.2938,1.2938,0,1.2963,1.2961,1.2949,1.2949,1.2948,1.2943,1.294,1.2936,1.2935,1.2937,1.2935,1.2939,1.2932,1.2941,1.2931,1.2939,1.2936,1.2936,1.2936,1.2935,1.2944,1.2928,1.2903,1.29,1.2934,1.2934,1.2935,0,1.2947,1.2941,1.2933,1.2933,1.2933,1.2929,1.2929,1.2928,1.2926,1.2923,1.2921,1.2918,1.2916,1.2913,1.2916,1.2922,1.2906,1.2915,1.2906,1.2906,1.2902,1.2902,1.2875,1.2901,1.2901,1.2901,1.2901,0,1.2929,1.2922,1.2926,1.2921,1.2913,1.2917,1.2909,1.2909,1.2909,1.2903,1.2909,1.2904,1.2909,1.2904,1.2906,1.2898,1.2897,1.2897,1.2898,1.2896,1.2896,1.2895,1.2896,1.29,1.2901,1.2901,1.2901,0,1.291,1.2913,1.2904,1.2905,1.2905,1.2899,1.2899,1.2894,1.2895,1.2889,1.2888,1.289,1.2884,1.2887,1.2882,1.2883,1.2871,1.2874,1.2872,1.2872,1.2863,1.2863,1.2834,1.283,1.2859,1.2858,1.2858,0,1.2898,1.2893,1.2892,1.2889,1.2889,1.2884,1.2881,1.2885,1.2882,1.288,1.2875,1.287,1.2866,1.2857,1.2858,1.2854,1.2856,1.2846,1.2855,1.2853,1.2855,1.2855,1.2854,1.2844,1.2843,1.2843,1.2843,0,1.2877,1.2878,1.2874,1.287,1.2867,1.2864,1.2862,1.2859,1.2863,1.2859,1.2853,1.285,1.2844,1.2839,1.2835,1.2834,1.2839,1.284,1.2837,1.2836,1.2834,1.2834,1.2866,1.284,1.2841,1.2841,1.2841,1.2841,1.286,1.2855,1.2854,1.2849,1.2848,1.2845,1.284,1.2841,1.2836,1.2832,1.2834,1.2827,1.2825,1.282,1.2819,1.2813,1.2817,1.2814,1.2813,1.2812,1.281,1.2835,1.2813,1.2813,1.2813,1.2813,1.2813,0,1.2839,1.2838,1.2833,1.283,1.2825,1.283,1.2827,1.2824,1.2818,1.2815,1.2811,1.2804,1.2799,1.2799,1.2794,1.279,1.2791,1.2788,1.2788,1.2788,1.2808,1.281,1.2787,1.2787,1.2787,1.2787,1.2787,1.2787,1.2827,1.2818,1.2819,1.2809,1.2808,1.2802,1.28,1.2797,1.2795,1.2787,1.2783,1.2783,1.2781,1.2776,1.2771,1.2771,1.2769,1.2764,1.2765,1.2784,1.2786,1.2789,1.2791,1.2764,1.2764,1.2746,1.2745,1.2745]}]]